Regional Weather Roundup
Issued by NWS

Home | Current Version | Previous Version | Graphics & Text | Print | Product List | Glossary On
Versions: 1 2 3 4 5 6 7 8 9 10 11 12 13 14 15 16 17 18 19 20 21 22 23 24 25 26 27 28 29 30 31 32 33 34 35 36 37 38 39 40 41 42 43 44 45 46 47 48 49 50
000
ASUS45 KBOI 122010
RWRID
WEATHER ROUNDUP FOR IDAHO
NATIONAL WEATHER SERVICE BOISE ID
200 PM MDT SAT JUL 12 2014

NOTE: "FAIR" INDICATES FEW OR NO CLOUDS BELOW 12000 FEET
WITH NO SIGNIFICANT WEATHER AND/OR OBSTRUCTIONS TO VISIBILITY

IDZ012-014-122100-
SOUTHWEST IDAHO


CITY           SKY/WX    TMP DP  RH WIND       PRES   REMARKS
BOISE          SUNNY     96  37  12 N10       30.10F HX  91
CALDWELL       SUNNY     93  48  21 N7        30.11S HX  90
$$

IDZ016-017-122100-
SOUTHCENTRAL IDAHO


CITY           SKY/WX    TMP DP  RH WIND       PRES   REMARKS
BURLEY         SUNNY     86  47  25 W6        30.18F
JEROME         SUNNY     88  47  24 NW3       30.19F
TWIN FALLS     SUNNY     92  42  17 N6        30.19F
$$

IDZ019>023-122100-
SOUTHEAST IDAHO


CITY           SKY/WX    TMP DP  RH WIND       PRES   REMARKS
IDAHO FALLS    PTSUNNY   84  52  33 W6        30.24F
POCATELLO      MOSUNNY   87  48  25 W12       30.22F
REXBURG        PTSUNNY   83  49  30 VRB3      30.25F
$$

IDZ006-010-011-018-031-032-122100-
CENTRAL IDAHO MOUNTAINS


CITY           SKY/WX    TMP DP  RH WIND       PRES   REMARKS
MCCALL         SUNNY     84  35  17 VRB5      30.25F
HAILEY         MOSUNNY   84  55  37 SE9       30.28F
STANLEY          N/A     81  38  21 NE8       30.36F
SALMON         MOSUNNY   86  52  30 N5        30.15F
CHALLIS        PTSUNNY   81  39  22 NE3       30.26F
$$

IDZ002-004-006-007-026-122100-
NORTHERN IDAHO


CITY           SKY/WX    TMP DP  RH WIND       PRES   REMARKS
LEWISTON       MOSUNNY   93  46  19 VRB3      30.06F
LOWELL           N/A     87  59  38 CALM      30.06F
COEUR D`ALENE  MOSUNNY   90  52  27 N8        30.12F
MULLAN PASS    MOSUNNY   74  38  27 VRB3      30.37F
$$


USA.gov is the U.S. government's official web portal to all federal, state and local government web resources and services.